Location: Newark
(46.7000°N, 60.6000°W)
Time: 08:50:06
(UTC+00:00)

Vanguard 3 - Pass Details

Date: 01 November 2020
Orbit: 508 x 3262 km, 33.3° (Epoch: 29 November)

Event Time Altitude Azimuth Distance (km) Brightness Sun altitude
Rises 06:09:35 0° 191° (S) 5,296 - -46.1°
Reaches altitude 10° 06:14:00 10° 176° (S) 4,746 - -45.5°
Exits shadow 06:17:49 17° 160° (SSE) 4,521 10.8 -45.0°
Maximum altitude 06:23:29 21° 134° (SE) 4,637 11.0 -44.1°
Drops below altitude 10° 06:35:16 10° 95° (E) 6,088 12.1 -42.4°
Sets 06:42:03 0° 82° (E) 7,231 12.8 -41.4°
